Time,TemperatureF,DewpointF,PressureIn,WindDirection,WindDirectionDegrees,WindSpeedMPH,WindSpeedGustMPH,Humidity,HourlyPrecipIn,Conditions,Clouds,dailyrainin,SoftwareType,DateUTC
2013-04-05 00:11:00,45.1,44.6,29.74,NNW,337,2.2,-999.0,98,-99.99,,,0.00,Acu-Link.com,2013-04-05 04:11:00,
2013-04-05 00:26:00,45.0,44.5,29.73,NNE,22,2.2,-999.0,98,-99.99,,,0.00,Acu-Link.com,2013-04-05 04:26:00,
2013-04-05 00:41:00,44.8,44.3,29.73,NW,315,2.7,-999.0,98,-99.99,,,0.00,Acu-Link.com,2013-04-05 04:41:00,
2013-04-05 01:11:00,44.6,44.1,29.74,North,0,3.7,-999.0,98,-99.99,,,0.00,Acu-Link.com,2013-04-05 05:11:00,
2013-04-05 01:27:00,44.6,44.1,29.74,NNW,337,1.1,-999.0,98,-99.99,,,0.00,Acu-Link.com,2013-04-05 05:27:00,
2013-04-05 01:42:00,44.6,44.1,29.74,East,90,0.0,-999.0,98,-99.99,,,0.00,Acu-Link.com,2013-04-05 05:42:00,
2013-04-05 01:57:00,44.6,44.1,29.74,ENE,67,3.7,-999.0,98,-99.99,,,0.00,Acu-Link.com,2013-04-05 05:57:00,
2013-04-05 02:12:00,44.4,43.9,29.74,NNW,337,3.7,-999.0,98,-99.99,,,0.00,Acu-Link.com,2013-04-05 06:12:00,
2013-04-05 02:42:00,44.2,43.7,29.74,NNE,22,2.2,-999.0,98,-99.99,,,0.00,Acu-Link.com,2013-04-05 06:42:00,
2013-04-05 02:57:00,44.2,43.7,29.74,ENE,67,1.1,-999.0,98,-99.99,,,0.00,Acu-Link.com,2013-04-05 06:57:00,
2013-04-05 03:12:00,44.2,43.7,29.74,North,0,2.2,-999.0,98,-99.99,,,0.00,Acu-Link.com,2013-04-05 07:12:00,
2013-04-05 03:27:00,43.9,43.4,29.74,NW,315,3.7,-999.0,98,-99.99,,,0.00,Acu-Link.com,2013-04-05 07:27:00,
2013-04-05 03:43:00,43.7,43.2,29.74,North,0,3.7,-999.0,98,-99.99,,,0.00,Acu-Link.com,2013-04-05 07:43:00,
2013-04-05 03:58:00,43.7,43.2,29.74,WNW,292,2.7,-999.0,98,-99.99,,,0.00,Acu-Link.com,2013-04-05 07:58:00,
2013-04-05 04:13:00,43.5,43.0,29.74,East,90,3.2,-999.0,98,-99.99,,,0.00,Acu-Link.com,2013-04-05 08:13:00,
2013-04-05 04:28:00,43.5,43.0,29.75,NNW,337,0.0,-999.0,98,-99.99,,,0.00,Acu-Link.com,2013-04-05 08:28:00,
2013-04-05 04:43:00,43.3,42.8,29.75,East,90,2.7,-999.0,98,-99.99,,,0.00,Acu-Link.com,2013-04-05 08:43:00,
2013-04-05 05:44:00,43.2,42.7,29.75,North,0,0.0,-999.0,98,-99.99,,,0.00,Acu-Link.com,2013-04-05 09:44:00,
2013-04-05 05:59:00,43.2,42.7,29.75,NNW,337,0.0,-999.0,98,-99.99,,,0.00,Acu-Link.com,2013-04-05 09:59:00,
2013-04-05 06:15:00,43.2,42.7,29.76,ESE,112,0.0,-999.0,98,-99.99,,,0.00,Acu-Link.com,2013-04-05 10:15:00,
2013-04-05 06:30:00,43.3,42.8,29.75,East,90,0.0,-999.0,98,-99.99,,,0.01,Acu-Link.com,2013-04-05 10:30:00,
2013-04-05 06:45:00,43.3,42.8,29.75,NE,45,0.0,-999.0,98,-99.99,,,0.01,Acu-Link.com,2013-04-05 10:45:00,
2013-04-05 07:00:00,43.3,42.8,29.75,NE,45,0.0,-999.0,98,-99.99,,,0.01,Acu-Link.com,2013-04-05 11:00:00,
2013-04-05 07:15:00,43.3,42.8,29.76,NNE,22,0.0,-999.0,98,-99.99,,,0.01,Acu-Link.com,2013-04-05 11:15:00,
2013-04-05 07:45:00,43.5,43.0,29.78,NE,45,1.7,-999.0,98,-99.99,,,0.01,Acu-Link.com,2013-04-05 11:45:00,
2013-04-05 08:00:00,43.9,43.4,29.78,North,0,2.2,-999.0,98,-99.99,,,0.01,Acu-Link.com,2013-04-05 12:00:00,
2013-04-05 08:15:00,44.2,43.7,29.78,NNE,22,3.7,-999.0,98,-99.99,,,0.01,Acu-Link.com,2013-04-05 12:15:00,
2013-04-05 08:31:00,44.6,44.1,29.78,WNW,292,1.7,-999.0,98,-99.99,,,0.01,Acu-Link.com,2013-04-05 12:31:00,
2013-04-05 08:46:00,45.0,44.5,29.79,NNW,337,2.7,-999.0,98,-99.99,,,0.01,Acu-Link.com,2013-04-05 12:46:00,
2013-04-05 09:01:00,46.2,45.7,29.79,NE,45,2.7,-999.0,98,-99.99,,,0.01,Acu-Link.com,2013-04-05 13:01:00,
2013-04-05 09:16:00,46.9,46.4,29.79,NE,45,2.7,-999.0,98,-99.99,,,0.01,Acu-Link.com,2013-04-05 13:16:00,
2013-04-05 09:46:00,48.2,47.1,29.79,ENE,67,2.7,-999.0,96,-99.99,,,0.01,Acu-Link.com,2013-04-05 13:46:00,
2013-04-05 10:17:00,49.8,48.1,29.79,North,0,3.2,-999.0,94,-99.99,,,0.01,Acu-Link.com,2013-04-05 14:17:00,
2013-04-05 11:02:00,51.8,48.7,29.80,NNE,22,6.8,-999.0,89,-99.99,,,0.01,Acu-Link.com,2013-04-05 15:02:00,
2013-04-05 11:17:00,54.1,50.3,29.80,North,0,5.3,-999.0,87,-99.99,,,0.01,Acu-Link.com,2013-04-05 15:17:00,
2013-04-05 11:32:00,54.0,49.3,29.81,East,90,5.3,-999.0,84,-99.99,,,0.01,Acu-Link.com,2013-04-05 15:32:00,
2013-04-05 11:47:00,56.3,49.2,29.80,East,90,7.3,-999.0,77,-99.99,,,0.01,Acu-Link.com,2013-04-05 15:47:00,
2013-04-05 12:02:00,56.7,48.5,29.81,East,90,5.8,-999.0,74,-99.99,,,0.01,Acu-Link.com,2013-04-05 16:02:00,
2013-04-05 12:18:00,57.4,47.7,29.80,East,90,6.8,-999.0,70,-99.99,,,0.01,Acu-Link.com,2013-04-05 16:18:00,
2013-04-05 12:33:00,57.6,47.9,29.81,ENE,67,6.3,-999.0,70,-99.99,,,0.01,Acu-Link.com,2013-04-05 16:33:00,
2013-04-05 12:48:00,58.1,47.6,29.80,NNE,22,6.8,-999.0,68,-99.99,,,0.01,Acu-Link.com,2013-04-05 16:48:00,
2013-04-05 13:03:00,59.0,47.3,29.80,NE,45,6.3,-999.0,65,-99.99,,,0.01,Acu-Link.com,2013-04-05 17:03:00,
2013-04-05 14:04:00,61.3,46.8,29.78,NNE,22,0.0,-999.0,59,-99.99,,,0.01,Acu-Link.com,2013-04-05 18:04:00,
2013-04-05 14:19:00,62.4,47.4,29.77,NNW,337,8.3,-999.0,58,-99.99,,,0.01,Acu-Link.com,2013-04-05 18:19:00,
2013-04-05 14:34:00,61.9,46.5,29.77,ENE,67,3.7,-999.0,57,-99.99,,,0.01,Acu-Link.com,2013-04-05 18:34:00,
2013-04-05 14:49:00,63.5,47.5,29.76,ENE,67,2.2,-999.0,56,-99.99,,,0.01,Acu-Link.com,2013-04-05 18:49:00,
2013-04-05 15:04:00,64.0,46.5,29.76,North,0,3.7,-999.0,53,-99.99,,,0.01,Acu-Link.com,2013-04-05 19:04:00,
2013-04-05 15:19:00,63.7,47.2,29.76,North,0,4.2,-999.0,55,-99.99,,,0.01,Acu-Link.com,2013-04-05 19:19:00,
2013-04-05 15:34:00,65.3,47.7,29.75,NE,45,3.7,-999.0,53,-99.99,,,0.01,Acu-Link.com,2013-04-05 19:34:00,
2013-04-05 15:49:00,66.0,47.9,29.75,NNW,337,5.3,-999.0,52,-99.99,,,0.01,Acu-Link.com,2013-04-05 19:49:00,
2013-04-05 16:05:00,65.8,46.6,29.75,NNE,22,3.2,-999.0,50,-99.99,,,0.01,Acu-Link.com,2013-04-05 20:05:00,
2013-04-05 16:20:00,66.7,46.9,29.74,ESE,112,2.7,-999.0,49,-99.99,,,0.01,Acu-Link.com,2013-04-05 20:20:00,
2013-04-05 16:35:00,66.7,46.4,29.74,ENE,67,5.3,-999.0,48,-99.99,,,0.01,Acu-Link.com,2013-04-05 20:35:00,
2013-04-05 16:50:00,67.5,46.6,29.74,NNE,22,2.2,-999.0,47,-99.99,,,0.01,Acu-Link.com,2013-04-05 20:50:00,
2013-04-05 17:05:00,66.6,45.7,29.74,NE,45,3.7,-999.0,47,-99.99,,,0.01,Acu-Link.com,2013-04-05 21:05:00,
2013-04-05 17:20:00,67.6,46.1,29.73,SE,135,3.7,-999.0,46,-99.99,,,0.01,Acu-Link.com,2013-04-05 21:20:00,
2013-04-05 17:50:00,71.1,46.2,29.74,NNE,22,2.2,-999.0,41,-99.99,,,0.01,Acu-Link.com,2013-04-05 21:50:00,
2013-04-05 18:05:00,71.2,45.6,29.74,NE,45,0.0,-999.0,40,-99.99,,,0.01,Acu-Link.com,2013-04-05 22:05:00,
2013-04-05 18:20:00,70.5,45.7,29.74,NE,45,0.0,-999.0,41,-99.99,,,0.01,Acu-Link.com,2013-04-05 22:20:00,
2013-04-05 18:36:00,68.2,45.4,29.74,NNW,337,3.2,-999.0,44,-99.99,,,0.01,Acu-Link.com,2013-04-05 22:36:00,
2013-04-05 19:21:00,64.8,45.2,29.75,North,0,2.7,-999.0,49,-99.99,,,0.01,Acu-Link.com,2013-04-05 23:21:00,
2013-04-05 19:36:00,63.9,44.9,29.75,NNW,337,2.7,-999.0,50,-99.99,,,0.01,Acu-Link.com,2013-04-05 23:36:00,
2013-04-05 19:51:00,63.0,44.6,29.76,NNW,337,3.2,-999.0,51,-99.99,,,0.01,Acu-Link.com,2013-04-05 23:51:00,
2013-04-05 20:06:00,61.3,43.5,29.77,NNW,337,2.2,-999.0,52,-99.99,,,0.01,Acu-Link.com,2013-04-06 00:06:00,
2013-04-05 20:36:00,58.5,44.7,29.77,ENE,67,0.0,-999.0,60,-99.99,,,0.01,Acu-Link.com,2013-04-06 00:36:00,
2013-04-05 20:52:00,56.5,45.3,29.78,NNW,337,0.0,-999.0,66,-99.99,,,0.01,Acu-Link.com,2013-04-06 00:52:00,
2013-04-05 21:07:00,54.1,45.3,29.78,South,180,0.0,-999.0,72,-99.99,,,0.01,Acu-Link.com,2013-04-06 01:07:00,
2013-04-05 21:22:00,52.7,46.7,29.79,SSW,202,0.0,-999.0,80,-99.99,,,0.01,Acu-Link.com,2013-04-06 01:22:00,
2013-04-05 21:37:00,51.6,46.3,29.79,South,180,0.0,-999.0,82,-99.99,,,0.01,Acu-Link.com,2013-04-06 01:37:00,
2013-04-05 21:52:00,50.5,45.8,29.80,SW,225,0.0,-999.0,84,-99.99,,,0.01,Acu-Link.com,2013-04-06 01:52:00,
2013-04-05 22:07:00,49.5,44.9,29.81,SW,225,0.0,-999.0,84,-99.99,,,0.01,Acu-Link.com,2013-04-06 02:07:00,
2013-04-05 22:23:00,48.4,44.7,29.82,East,90,0.0,-999.0,87,-99.99,,,0.01,Acu-Link.com,2013-04-06 02:23:00,
2013-04-05 22:38:00,47.7,45.5,29.82,SSW,202,0.0,-999.0,92,-99.99,,,0.01,Acu-Link.com,2013-04-06 02:38:00,
2013-04-05 22:53:00,46.9,44.4,29.82,East,90,0.0,-999.0,91,-99.99,,,0.01,Acu-Link.com,2013-04-06 02:53:00,
2013-04-05 23:08:00,46.0,44.1,29.83,SW,225,0.0,-999.0,93,-99.99,,,0.01,Acu-Link.com,2013-04-06 03:08:00,
2013-04-05 23:23:00,45.7,44.4,29.84,SW,225,0.0,-999.0,95,-99.99,,,0.01,Acu-Link.com,2013-04-06 03:23:00,
2013-04-05 23:38:00,45.1,43.8,29.84,SSW,202,0.0,-999.0,95,-99.99,,,0.01,Acu-Link.com,2013-04-06 03:38:00,
2013-04-05 23:53:00,44.4,42.8,29.84,SSE,157,0.0,-999.0,94,-99.99,,,0.01,Acu-Link.com,2013-04-06 03:53:00,